Wind_Speed
9 10 10 10 10 10 9 9 9 9 8 8 7 7 7 7 8 7 7 7 7 7 7 7 7 7 7 7 7 6 6 6 6 6 6 6 6 6 7 7 7 7 7
10 10 11 11 11 10 11 10 10 9 9 8 7 7 7 7 8 7 7 7 7 7 8 8 8 8 8 9 8 8 7 7 7 7 7 7 7 7 7 7 8 8 8
11 11 12 12 11 11 11 11 10 10 9 8 8 7 8 8 8 8 8 8 8 7 8 8 9 9 9 10 10 9 9 8 8 8 8 8 8 8 8 8 8 8 8
11 12 12 12 12 12 12 12 11 11 10 9 9 8 8 8 8 9 9 9 9 9 9 9 10 10 10 10 11 11 10 10 9 9 9 9 9 8 9 10 9 9 9
12 12 12 12 12 13 13 13 12 12 11 11 10 10 9 9 9 9 10 10 10 10 10 11 11 10 11 11 12 12 11 11 10 10 9 9 10 10 10 11 10 10 10
12 13 13 13 13 14 13 13 12 12 12 12 11 11 10 10 11 11 10 10 11 11 11 12 12 12 11 12 12 12 12 12 12 11 11 11 11 11 11 12 11 11 11
13 13 14 14 14 14 14 13 13 12 12 12 12 12 11 11 12 12 11 11 12 13 13 13 13 13 13 13 13 13 13 13 14 13 13 12 12 12 12 12 12 12 12
13 14 14 13 14 14 15 14 14 14 13 13 13 13 13 13 12 13 13 13 13 14 14 14 14 15 14 14 14 14 14 14 15 15 14 13 13 13 13 12 13 12 12
14 14 14 13 14 14 14 14 14 14 14 13 14 14 14 14 14 14 14 14 14 15 15 15 15 16 16 16 16 16 16 16 16 16 16 15 15 15 14 14 14 13 13
14 14 14 14 14 15 15 14 13 14 14 14 14 14 15 15 15 15 15 15 15 16 16 16 17 17 18 18 18 17 17 18 17 17 17 17 17 16 16 15 15 14 14
14 14 13 14 14 14 13 13 13 13 14 14 14 15 15 16 16 16 15 16 16 17 18 18 18 19 19 19 19 19 18 19 18 18 18 18 18 17 17 16 16 16 16
13 13 13 13 13 13 13 13 14 14 15 15 14 15 16 17 17 17 17 17 18 18 19 20 20 20 20 20 20 20 20 20 19 19 19 19 19 20 19 18 18 17 17
13 13 13 13 13 13 14 14 14 14 14 15 14 15 16 17 18 18 18 19 19 20 20 20 21 21 21 21 22 22 22 21 21 21 21 21 20 21 21 20 20 19 18
12 12 13 13 14 14 14 14 13 13 13 14 14 14 14 15 17 18 18 19 20 21 21 21 21 22 22 23 23 24 24 22 22 23 22 22 22 22 22 22 21 22 21
13 13 13 13 14 13 13 13 13 13 14 15 15 15 15 15 16 17 17 18 20 20 20 20 22 22 23 24 25 24 24 24 24 24 24 24 24 23 23 22 22 22 21
13 13 13 13 14 14 14 14 14 15 15 16 17 18 17 17 17 17 18 19 19 19 19 20 21 22 23 25 25 26 26 26 26 26 25 25 25 25 25 24 23 22 22
12 12 13 13 14 15 15 15 16 17 17 17 17 18 18 18 18 19 19 20 20 21 21 21 21 23 23 24 26 27 28 27 27 27 26 26 26 26 26 25 25 24 23
12 12 13 14 15 15 16 16 17 18 18 18 19 19 19 19 19 19 19 20 21 22 23 23 23 23 24 25 26 27 27 27 28 28 28 28 28 27 27 26 25 25 25
13 14 14 15 15 16 16 17 17 18 19 19 20 19 19 19 19 19 20 21 22 23 23 24 24 25 25 25 26 26 27 28 28 29 29 29 28 28 28 27 27 27 26
14 15 16 17 17 17 17 18 19 19 19 19 19 19 18 19 19 20 21 21 22 22 22 23 24 24 24 24 25 25 26 27 28 29 30 29 29 29 29 29 28 28 28
15 16 17 17 18 18 18 19 19 19 19 19 19 18 18 19 19 19 20 20 20 20 20 21 22 22 23 23 24 25 26 27 27 28 30 30 30 30 31 32 31 30 29
15 16 17 18 18 19 19 18 19 19 19 19 19 19 19 18 18 18 19 20 19 20 20 20 20 22 23 23 24 26 26 27 27 28 30 31 31 31 32 32 33 32 30
15 16 17 17 18 19 19 19 19 19 19 18 19 18 18 17 17 18 18 19 19 19 19 20 20 21 21 22 24 25 26 26 27 28 29 31 32 33 33 33 33 33 32
15 16 16 16 17 19 19 20 19 18 19 18 18 18 18 17 18 18 18 19 18 19 19 19 21 22 22 22 23 24 24 25 27 28 29 30 32 33 33 33 33 33 32
15 16 17 17 18 19 19 20 19 19 19 19 19 18 18 18 19 18 18 18 18 20 20 21 21 21 21 22 23 24 25 25 26 27 28 28 30 31 32 33 33 33 33
16 17 18 19 20 20 20 20 19 19 19 20 20 19 19 19 18 18 18 18 19 20 20 20 21 21 21 21 22 24 25 25 26 27 27 28 28 29 31 32 33 34 33
Wind_Direction
336 333 332 326 321 319 317 315 316 315 312 308 300 300 302 299 296 289 289 284 276 273 271 268 266 265 263 262 261 258 253 250 252 252 255 256 253 247 239 235 232 232 229
332 329 326 321 319 318 316 313 310 310 307 302 297 295 292 287 286 286 284 278 272 273 273 269 266 265 263 260 257 256 254 255 257 256 255 252 253 248 242 236 236 238 237
326 325 324 320 318 317 319 318 314 308 303 299 296 293 290 283 279 279 278 276 272 270 272 271 265 263 261 259 255 254 254 255 258 255 252 250 249 247 244 239 240 238 240
320 322 321 321 318 313 312 313 309 304 298 295 293 289 286 282 279 277 275 273 273 271 269 268 263 259 257 256 255 252 251 252 254 252 251 248 244 246 244 243 244 246 242
316 317 317 317 316 312 310 308 301 295 292 292 289 283 281 279 278 276 273 269 270 268 265 263 262 258 256 255 253 251 249 250 250 249 251 250 248 250 249 247 244 247 247
313 311 311 312 311 309 307 305 299 293 290 289 286 282 279 278 276 274 271 267 265 264 264 263 262 259 258 254 253 251 250 249 249 249 249 251 251 251 251 248 244 244 245
308 308 308 308 307 308 304 300 296 294 291 288 285 280 275 275 277 274 270 267 264 262 260 261 260 258 257 255 254 252 251 249 249 249 248 250 250 251 252 251 247 245 243
309 308 308 308 308 304 299 298 297 294 289 284 282 279 273 270 268 270 269 268 265 261 259 259 258 258 258 257 255 255 252 250 250 249 249 249 252 252 250 249 248 248 245
306 307 307 309 308 304 300 299 299 296 291 286 282 279 276 271 270 268 268 268 266 262 260 259 258 258 259 259 255 254 252 250 249 250 249 249 252 251 248 250 253 252 247
310 307 307 310 309 308 303 301 300 298 295 291 284 280 277 274 270 268 268 268 266 262 260 260 259 258 259 259 258 256 255 252 250 251 250 249 251 251 251 251 250 249 250
320 317 314 313 310 310 306 305 301 298 296 294 285 279 277 275 270 266 267 266 264 263 262 260 259 258 258 258 258 258 259 256 253 252 250 249 249 249 251 249 247 246 247
323 319 315 313 309 306 302 301 302 299 295 294 287 280 277 274 269 265 265 265 263 263 261 259 258 257 256 256 258 258 258 257 255 255 254 251 249 249 250 249 247 246 247
322 317 315 313 311 307 303 299 300 300 295 295 291 283 277 272 268 265 265 264 263 263 263 261 259 258 257 257 257 257 258 259 254 254 254 253 253 252 251 250 248 249 251
321 321 318 312 311 306 305 302 300 300 297 298 296 288 280 274 272 268 267 266 266 265 267 266 263 260 257 257 257 258 259 259 255 253 253 253 254 253 252 251 251 250 250
322 317 315 315 313 309 306 304 301 301 299 297 294 290 284 278 275 270 267 267 268 268 267 267 265 261 259 259 259 259 260 257 255 253 252 252 253 254 252 251 251 250 251
321 317 315 315 316 312 306 302 301 300 297 296 293 290 285 281 275 270 268 267 267 268 268 270 268 265 263 261 259 259 260 258 258 254 254 253 252 254 253 252 250 249 249
315 316 315 314 313 310 305 302 298 297 295 295 294 289 286 283 278 274 271 267 268 269 269 271 271 268 266 263 261 260 259 259 257 254 253 253 252 253 253 251 248 249 249
314 316 315 314 314 311 309 306 303 300 296 295 294 290 287 283 279 277 274 270 270 270 270 271 271 270 266 263 262 260 260 260 258 255 253 253 251 251 251 250 249 248 247
318 316 316 317 318 317 314 310 304 302 298 295 292 291 287 283 279 280 278 276 274 271 271 271 270 270 268 265 262 261 260 261 260 256 253 251 251 251 250 250 250 248 246
319 319 320 320 316 315 312 309 308 305 302 299 295 293 288 283 281 281 280 280 278 277 274 271 269 269 267 266 264 262 261 260 260 258 254 251 251 251 249 250 251 249 246
320 321 324 321 319 319 317 312 311 306 304 302 299 295 292 292 285 283 282 280 280 280 279 275 274 270 267 266 264 263 262 260 260 256 253 251 250 250 251 250 251 250 248
321 322 323 321 319 320 321 318 315 313 310 307 302 300 299 297 290 286 284 282 282 282 281 280 276 271 269 268 267 266 264 263 260 257 253 252 251 251 251 250 250 250 250
318 320 321 323 322 321 320 319 316 315 312 308 303 302 301 299 296 292 289 286 284 282 281 280 277 273 272 270 270 269 266 264 262 260 256 254 252 252 251 251 250 251 251
318 320 322 321 321 320 320 318 316 315 313 310 305 302 300 297 297 294 292 286 283 281 282 282 279 275 274 273 272 271 269 266 265 263 259 256 253 253 252 251 250 250 250
317 319 321 322 322 321 321 319 317 314 313 311 309 307 304 301 298 296 293 289 285 282 282 283 284 281 279 277 275 273 271 269 265 263 259 258 256 253 252 251 251 250 250
316 318 320 322 324 324 324 321 318 315 313 312 310 309 306 304 301 299 295 293 291 287 284 283 283 282 281 279 277 274 273 271 267 264 263 261 258 256 255 253 252 250 250
Height
5868 5867 5866 5865 5865 5864 5863 5863 5863 5862 5862 5862 5862 5862 5862 5862 5863 5863 5864 5864 5865 5865 5866 5867 5868 5869 5870 5871 5872 5872 5873 5873 5874 5874 5875 5876 5876 5877 5877 5878 5879 5880 5880
5867 5866 5865 5864 5863 5863 5862 5861 5861 5861 5861 5860 5860 5861 5861 5861 5861 5861 5862 5862 5863 5864 5865 5866 5867 5868 5869 5869 5870 5871 5872 5872 5873 5873 5874 5874 5875 5876 5876 5877 5878 5879 5880
5865 5864 5863 5862 5862 5861 5861 5860 5859 5859 5859 5859 5859 5859 5859 5859 5859 5860 5860 5861 5861 5862 5863 5864 5865 5866 5867 5868 5868 5869 5870 5871 5871 5872 5872 5873 5874 5874 5875 5876 5877 5878 5879
5864 5863 5862 5861 5860 5859 5859 5858 5858 5857 5857 5857 5857 5857 5857 5857 5858 5858 5858 5859 5860 5860 5861 5862 5862 5863 5864 5865 5866 5867 5868 5869 5870 5870 5871 5872 5872 5873 5874 5875 5875 5876 5877
5862 5861 5860 5859 5858 5857 5857 5856 5856 5855 5855 5854 5854 5855 5855 5855 5856 5856 5856 5857 5857 5858 5859 5859 5860 5860 5862 5863 5864 5865 5866 5867 5868 5868 5869 5870 5871 5871 5872 5873 5874 5875 5876
5860 5859 5858 5857 5856 5855 5855 5854 5853 5853 5852 5852 5852 5852 5852 5853 5853 5853 5854 5854 5855 5856 5857 5857 5857 5858 5859 5860 5861 5862 5864 5865 5866 5866 5867 5868 5868 5869 5870 5871 5872 5873 5874
5858 5857 5856 5855 5854 5853 5852 5852 5851 5850 5850 5850 5850 5850 5850 5850 5851 5851 5851 5852 5852 5853 5854 5855 5855 5856 5857 5858 5859 5860 5861 5862 5863 5864 5865 5866 5866 5867 5868 5869 5870 5871 5872
5855 5854 5853 5852 5852 5851 5849 5849 5848 5848 5848 5847 5847 5847 5847 5847 5847 5848 5848 5849 5849 5850 5851 5852 5852 5853 5854 5855 5856 5857 5858 5859 5860 5862 5862 5863 5864 5865 5866 5867 5868 5869 5870
5853 5851 5850 5850 5849 5848 5846 5846 5846 5845 5845 5845 5844 5844 5844 5844 5844 5845 5845 5846 5846 5847 5847 5848 5849 5850 5851 5852 5853 5854 5855 5856 5857 5858 5860 5860 5861 5862 5863 5864 5865 5866 5867
5850 5849 5848 5847 5846 5845 5844 5843 5843 5842 5842 5842 5841 5841 5841 5841 5841 5841 5842 5842 5843 5843 5844 5845 5846 5847 5847 5848 5850 5851 5852 5853 5854 5855 5856 5858 5858 5859 5860 5861 5862 5864 5865
5847 5846 5845 5844 5843 5842 5841 5841 5840 5839 5839 5839 5838 5838 5838 5837 5838 5838 5838 5839 5839 5840 5841 5841 5842 5843 5844 5845 5846 5847 5848 5849 5851 5851 5853 5854 5855 5856 5857 5858 5859 5861 5862
5845 5844 5843 5841 5840 5840 5839 5838 5837 5837 5836 5835 5835 5835 5834 5834 5834 5834 5835 5835 5835 5836 5837 5837 5838 5839 5840 5841 5842 5843 5845 5846 5847 5848 5849 5850 5852 5853 5854 5855 5856 5857 5858
5843 5842 5840 5839 5838 5837 5835 5835 5834 5833 5833 5832 5832 5831 5830 5830 5830 5830 5831 5831 5831 5832 5832 5833 5834 5834 5835 5836 5837 5839 5840 5841 5842 5844 5845 5846 5847 5848 5850 5851 5852 5853 5854
5842 5840 5838 5837 5836 5834 5833 5832 5831 5830 5829 5829 5828 5827 5826 5826 5826 5827 5827 5827 5827 5827 5828 5829 5829 5830 5830 5831 5833 5834 5835 5836 5837 5839 5840 5841 5843 5844 5845 5846 5847 5848 5850
5840 5838 5836 5835 5833 5832 5831 5829 5828 5827 5826 5825 5824 5823 5822 5822 5823 5823 5823 5823 5822 5823 5823 5824 5824 5824 5825 5826 5827 5828 5830 5831 5832 5833 5835 5836 5838 5839 5840 5841 5842 5843 5845
5838 5836 5834 5833 5831 5829 5828 5827 5825 5824 5823 5822 5821 5819 5818 5818 5818 5818 5818 5818 5818 5817 5818 5818 5819 5819 5820 5820 5821 5822 5823 5825 5826 5828 5829 5830 5832 5834 5835 5836 5838 5839 5840
5837 5835 5833 5831 5829 5827 5825 5824 5822 5821 5819 5818 5816 5815 5815 5814 5813 5813 5813 5813 5813 5812 5813 5813 5813 5814 5814 5814 5815 5816 5817 5818 5820 5821 5823 5825 5826 5828 5829 5831 5832 5834 5835
5834 5833 5831 5829 5827 5825 5823 5821 5819 5817 5815 5814 5812 5811 5810 5809 5808 5808 5808 5808 5807 5807 5807 5807 5807 5807 5807 5807 5808 5809 5810 5811 5813 5814 5816 5818 5820 5822 5823 5825 5826 5828 5830
5832 5830 5829 5826 5824 5822 5820 5817 5815 5813 5811 5810 5808 5806 5805 5804 5803 5803 5803 5802 5802 5801 5801 5801 5801 5801 5801 5801 5801 5802 5803 5804 5805 5807 5809 5811 5813 5815 5817 5818 5820 5822 5823
5829 5827 5826 5824 5821 5819 5817 5814 5812 5810 5807 5805 5803 5802 5801 5799 5799 5798 5797 5797 5796 5796 5795 5794 5794 5794 5794 5794 5795 5795 5796 5797 5798 5800 5802 5804 5806 5807 5809 5811 5813 5815 5817
5827 5825 5823 5821 5818 5816 5814 5811 5809 5806 5804 5801 5799 5798 5796 5795 5794 5793 5792 5791 5791 5790 5789 5788 5788 5787 5787 5787 5788 5788 5789 5790 5791 5792 5794 5796 5798 5800 5802 5804 5806 5808 5810
5824 5822 5820 5818 5815 5813 5810 5807 5805 5802 5799 5797 5795 5794 5792 5791 5789 5788 5787 5786 5786 5785 5783 5783 5782 5782 5781 5781 5781 5781 5782 5783 5784 5785 5786 5788 5790 5792 5794 5796 5798 5800 5802
5822 5819 5817 5814 5812 5809 5806 5804 5801 5798 5796 5794 5791 5790 5788 5786 5785 5784 5783 5781 5780 5780 5779 5777 5776 5776 5775 5775 5774 5774 5775 5776 5776 5778 5779 5780 5782 5784 5786 5788 5790 5792 5794
5820 5817 5814 5812 5809 5806 5803 5800 5797 5795 5792 5790 5788 5786 5784 5782 5781 5779 5777 5776 5775 5774 5773 5772 5771 5770 5769 5768 5768 5768 5768 5768 5769 5770 5771 5772 5774 5775 5777 5779 5782 5784 5786
5817 5814 5811 5809 5806 5802 5799 5796 5793 5791 5789 5786 5784 5781 5780 5778 5776 5774 5773 5771 5770 5769 5767 5766 5765 5764 5763 5762 5761 5761 5761 5761 5761 5762 5764 5765 5766 5767 5769 5771 5773 5775 5777
5814 5811 5808 5805 5801 5798 5795 5792 5789 5787 5784 5782 5779 5777 5775 5773 5772 5770 5768 5766 5764 5763 5762 5761 5759 5758 5757 5756 5755 5755 5754 5754 5754 5755 5756 5757 5758 5760 5761 5762 5764 5767 5769